Location: Holkham
(52.9500°N, 0.8167°E)
Time: 18:24:16
(UTC+00:00)

ASTEX 1 - Pass Details

Date: 19 May 2025
Orbit: 714 x 734 km, 92.7° (Epoch: 22 June)

Event Time Altitude Azimuth Distance (km) Brightness Sun altitude
Rises 23:16:43 0° 10° (N) 3,164 8.1 -16.6°
Reaches altitude 10° 23:19:09 10° 18° (NNE) 2,240 6.9 -16.7°
Maximum altitude 23:23:50 41° 88° (E) 1,057 4.2 -16.8°
Enters shadow 23:26:15 25° 143° (SE) 1,465 4.5 -16.8°
